User: anonymous   Login
Location: Muenchen
(48.1800°N, 11.5800°E)
Time: 16:53:18
(UTC+01:00)
Language:

Iridium 37 - Orbit

View from above orbital plane
View from above orbital plane
View from above satellite
View from above satellite

Ground track
Ground track

The orbit data is extracted from the following two-line orbital elements,

1 24968U 97056D   15058.18986067  .00000295  00000-0  98350-4 0  9995
2 24968 086.3981 310.3978 0002086 082.4619 277.6813 14.34215890911993
Epoch (UTC): 27 February 2015 04:33:23
Eccentricity: 0.0002086
inclination: 86.3981°
perigee height: 776 km
apogee height: 779 km
right ascension of ascending node: 310.3978°
argument of perigee: 82.4619°
revolutions per day: 14.34215890
mean anomaly at epoch: 277.6813°
orbit number at epoch: 91199

The dashed part of the orbit path shows where the satellite is in the earth's shadow,  

DLR